Regional Weather Roundup
Issued by NWS

Home | Current Version | Previous Version | Graphics & Text | Print | Product List | Glossary On
Versions: 1 2 3 4 5 6 7 8 9 10 11 12 13 14 15 16 17 18 19 20 21 22 23 24 25 26 27 28 29 30 31 32 33 34 35 36 37 38 39 40 41 42 43 44 45 46 47 48 49 50
000
ASUS43 KFSD 201602
RWRSD

WEATHER ROUNDUP FOR SOUTH DAKOTA
NATIONAL WEATHER SERVICE SIOUX FALLS SD
1100 AM CDT SAT SEP 20 2014

NOTE: "FAIR" INDICATES FEW OR NO CLOUDS BELOW 12,000 FEET WITH NO
SIGNIFICANT WEATHER AND/OR OBSTRUCTIONS TO VISIBILITY.


SDZ001>005-009-010-012>017-201700-
NORTHWEST AND NORTH CENTRAL SOUTH DAKOTA

CITY           SKY/WX    TMP DP  RH WIND       PRES   REMARKS
FAITH            N/A     72  47  40 NW24      30.02R
MOBRIDGE       MOSUNNY   70  53  54 NW12      29.89F
$$

SDZ012>016-024>037-041>051-057-063-072>074-201700-
SOUTHWEST AND SOUTH CENTRAL SOUTH DAKOTA

CITY           SKY/WX    TMP DP  RH WIND       PRES   REMARKS
RAPID CTY ARPT SUNNY     73  45  36 NW22      30.11R
PIERRE         SUNNY     71  54  54 W10       29.95S
CUSTER         SUNNY     66  41  40 NW15G24   30.22R
ELLSWORTH AFB  SUNNY     71  45  39 NW24G32   30.10R
PHILIP         SUNNY     75  50  41 NW18G28   30.02S
PINE RIDGE     SUNNY     68  51  54 W8        30.13R
WINNER         FAIR      74  55  51 NW13      30.00S
$$

SDZ004>011-016>023-039-040-201700-
NORTHEAST SOUTH DAKOTA

CITY           SKY/WX    TMP DP  RH WIND       PRES   REMARKS
ABERDEEN       SUNNY     71  57  61 SW8       29.87F
WATERTOWN      SUNNY     69  58  67 W9        29.90S
SISSETON         N/A     72  58  61 W10       29.85F
$$

SDZ017-020-022-023-036>040-048>070-201700-
SOUTHEAST SOUTH DAKOTA

CITY           SKY/WX    TMP DP  RH WIND       PRES   REMARKS
SIOUX FALLS    SUNNY     74  59  59 NW7       29.92R
HURON          SUNNY     73  57  57 SW8       29.91F
CHAMBERLAIN    SUNNY     69  55  60 W8        29.97S
MITCHELL       SUNNY     71  59  65 SW7       29.94S
YANKTON        SUNNY     72  59  64 NW8       29.94R
$$

ABBREVIATIONS USED IN REMARKS
   TC - TEMPERATURE IN CELSIUS
  WCI - WIND CHILL INDEX
   HX - HEAT INDEX
  VSB - VISIBILITY



USA.gov is the U.S. government's official web portal to all federal, state and local government web resources and services.